TEVEL2-8

Last updated on Sun Jun 21 2026 00:03:20 GMT+0000 (Coordinated Universal Time)

1 63239U 25052AF 26170.68834909 .00012538 00000+0 41221-3 0 9991 2 63239 97.3937 65.9009 0008075 124.5955 235.6049 15.31647647 70407
UTC large
Height (km)
Speed (km/s)
/
Latitude / Longitude
Inclination (degrees)
Orbital Period (minutes)
Azimuth
Elevation
Range (km)
Doppler Factor

Next 0 passes for location: London (51.5072 / 0.1276)

No passes found over London.
TEVEL2-8